Back to catalog

STARLINK-31778

AliveCommunicationsVLEO
NORAD 59602·PAYLOAD·🇺🇸 United States

Launched Apr 28, 2024 from Cape Canaveral Space Force Station

Loading…

Next Passes (next 24 hours)

TLE

FreshSource: CelesTrak SupGP

Epoch: Sep 15, 2026, 02:23 UTC

1 59602C 24080B   26258.09979167 -.00022343  00000+0 -80918-3 0  2589
2 59602  43.0038  45.0685 0001979 270.7821 205.8591 15.27592249    10

Track STARLINK-31778 in real time with AllMySat

Download on the App Store